235P/LINEAR (2018)

Japanese version
Home page
Updated on April 13, 2018

---------------------------------------------------------------------

* Profile

* Pictures

* Orbital Elements

Epoch 2018 Mar. 23.0 TT = JDT 2458200.5
T 2018 Mar. 17.64303 TT                                 MPCW
q   2.7322664            (2000.0)            P               Q
n   0.12360226     Peri.  333.78978     -0.99732906     -0.03503452
a   3.9913374      Node   204.45914     +0.05078413     -0.96326317
e   0.3154509      Incl.    8.90442     -0.05249501     -0.26626424
P   7.97
From 169 observations 2002 Jan. 12-2018 Mar. 24, mean residual 0".6.

* Magnitudes Graph

        m1 = 8.5 + 5 log d + 20.0 log r

        * Gray curve is:  m1 = 12.0 + 5 log d + 10.0 log r

---------------------------------------------------------------------

The orbital elements are published on M.P.E.C. 2018-F152.
The magnitudes graphs are made with Comet for Windows.

---------------------------------------------------------------------

Copyright(C) Seiichi Yoshida (comet@aerith.net). All rights reserved.